DEXAE EDWN-EDWN

Flight info

Callsign DEXAE
Flight time 0h 16m
Altitude 3000
Route VFR
Aircraft GABR/L-S/L

Departure

Time 2026-04-23 15:17
Airport Flugplatz Nordhorn-Lingen (EDWN)

Arrival

Time 2026-04-23 15:33
Airport Flugplatz Nordhorn-Lingen (EDWN)
Time Latitude Longitude Altitude Speed Heading
2026-04-23 15:13 52.45650 7.18035 88 ft 0 kts 55°
2026-04-23 15:16 52.45655 7.18048 89 ft 18 kts 57°
2026-04-23 15:16 52.45870 7.18555 197 ft 71 kts 55°
2026-04-23 15:17 52.46144 7.19324 564 ft 82 kts 55°
2026-04-23 15:17 52.46477 7.20403 1178 ft 80 kts 54°
2026-04-23 15:17 52.46622 7.21023 1341 ft 90 kts 69°
2026-04-23 15:17 52.46498 7.22049 1661 ft 99 kts 125°
2026-04-23 15:18 52.46027 7.22882 2017 ft 102 kts 125°
2026-04-23 15:18 52.45570 7.23865 2229 ft 113 kts 123°
2026-04-23 15:18 52.45055 7.24969 2258 ft 134 kts 122°
2026-04-23 15:18 52.44478 7.26222 2246 ft 137 kts 122°
2026-04-23 15:19 52.43979 7.27528 2283 ft 133 kts 104°
2026-04-23 15:19 52.43689 7.28975 2295 ft 136 kts 101°
2026-04-23 15:19 52.43384 7.30446 2294 ft 137 kts 103°
2026-04-23 15:19 52.43077 7.31919 2298 ft 137 kts 102°
2026-04-23 15:20 52.42784 7.33412 2306 ft 139 kts 103°
2026-04-23 15:20 52.42494 7.34930 2309 ft 140 kts 103°
2026-04-23 15:20 52.42204 7.36450 2305 ft 144 kts 103°
2026-04-23 15:20 52.41905 7.38032 2296 ft 147 kts 102°
2026-04-23 15:21 52.41591 7.39631 2293 ft 148 kts 102°
2026-04-23 15:21 52.41267 7.41207 2290 ft 143 kts 102°
2026-04-23 15:21 52.40953 7.42733 2293 ft 141 kts 100°
2026-04-23 15:21 52.40984 7.44227 2390 ft 124 kts 68°
2026-04-23 15:22 52.41158 7.45487 2827 ft 103 kts 69°
2026-04-23 15:22 52.41264 7.46526 3361 ft 84 kts 68°
2026-04-23 15:22 52.41314 7.47441 3761 ft 76 kts 62°
2026-04-23 15:22 52.41587 7.47920 4083 ft 56 kts 23°
2026-04-23 15:23 52.41891 7.48316 4422 ft 55 kts 23°
2026-04-23 15:23 52.42192 7.48696 4743 ft 54 kts 23°
2026-04-23 15:23 52.42505 7.49082 4989 ft 66 kts 23°
2026-04-23 15:23 52.42984 7.49575 5009 ft 95 kts 23°
2026-04-23 15:24 52.43618 7.50167 5017 ft 114 kts 22°
2026-04-23 15:24 52.44346 7.50762 5017 ft 123 kts 20°
2026-04-23 15:24 52.45128 7.51338 5073 ft 122 kts 19°
2026-04-23 15:24 52.45933 7.51871 5068 ft 125 kts 17°
2026-04-23 15:25 52.46754 7.52340 5058 ft 128 kts 14°
2026-04-23 15:25 52.47497 7.52707 5657 ft 81 kts 11°
2026-04-23 15:25 52.47980 7.52837 5979 ft 78 kts 347°
2026-04-23 15:25 52.48402 7.52079 5726 ft 108 kts 302°
2026-04-23 15:26 52.48560 7.50767 5391 ft 128 kts 280°
2026-04-23 15:26 52.48314 7.49259 5056 ft 145 kts 253°
2026-04-23 15:26 52.47845 7.47719 4686 ft 155 kts 250°
2026-04-23 15:26 52.47354 7.46156 4398 ft 155 kts 250°
2026-04-23 15:27 52.46883 7.44556 4083 ft 156 kts 251°
2026-04-23 15:27 52.46407 7.42963 3834 ft 154 kts 252°
2026-04-23 15:27 52.45956 7.41384 3550 ft 155 kts 253°
2026-04-23 15:27 52.45517 7.39773 3323 ft 153 kts 252°
2026-04-23 15:28 52.45115 7.38183 3117 ft 147 kts 258°
2026-04-23 15:28 52.44804 7.36621 2930 ft 145 kts 260°
2026-04-23 15:28 52.44523 7.35028 2721 ft 144 kts 262°
2026-04-23 15:28 52.44272 7.33448 2593 ft 142 kts 263°
2026-04-23 15:29 52.44071 7.31865 2455 ft 142 kts 267°
2026-04-23 15:29 52.43911 7.30276 2188 ft 142 kts 267°
2026-04-23 15:29 52.43786 7.28689 2041 ft 138 kts 269°
2026-04-23 15:29 52.43657 7.27124 1855 ft 138 kts 270°
2026-04-23 15:30 52.43565 7.25568 1605 ft 139 kts 274°
2026-04-23 15:30 52.43555 7.23990 1382 ft 137 kts 275°
2026-04-23 15:30 52.43517 7.22425 1162 ft 137 kts 273°
2026-04-23 15:30 52.43277 7.20901 948 ft 139 kts 256°
2026-04-23 15:31 52.42783 7.19566 795 ft 136 kts 246°
2026-04-23 15:31 52.42339 7.18302 680 ft 116 kts 265°
2026-04-23 15:31 52.42569 7.17246 671 ft 101 kts 321°
2026-04-23 15:31 52.43130 7.16586 657 ft 98 kts 327°
2026-04-23 15:32 52.43690 7.16003 684 ft 89 kts 328°
2026-04-23 15:32 52.44165 7.15571 672 ft 70 kts 335°
2026-04-23 15:32 52.44634 7.15675 580 ft 84 kts 35°
2026-04-23 15:32 52.44958 7.16424 408 ft 70 kts 45°
2026-04-23 15:33 52.45242 7.17076 266 ft 71 kts 53°
2026-04-23 15:33 52.45506 7.17700 98 ft 62 kts 55°
2026-04-23 15:33 52.45706 7.18167 85 ft 38 kts 55°
2026-04-23 15:33 52.45828 7.18453 88 ft 25 kts 53°
2026-04-23 15:34 52.45918 7.18665 89 ft 20 kts 53°
2026-04-23 15:34 52.45988 7.18805 87 ft 8 kts 326°
2026-04-23 15:34 52.46001 7.18723 89 ft 11 kts 233°
2026-04-23 15:34 52.45953 7.18608 88 ft 15 kts 232°
2026-04-23 15:35 52.45886 7.18454 87 ft 18 kts 236°
2026-04-23 15:35 52.45809 7.18276 86 ft 21 kts 233°
2026-04-23 15:35 52.45720 7.18069 85 ft 23 kts 232°
2026-04-23 15:35 52.45628 7.17853 86 ft 23 kts 236°
2026-04-23 15:36 52.45552 7.17673 88 ft 18 kts 237°
2026-04-23 15:36 52.45572 7.17577 83 ft 11 kts 329°
2026-04-23 15:36 52.45638 7.17528 87 ft 7 kts 328°
2026-04-23 15:36 52.45672 7.17492 89 ft 8 kts 329°
2026-04-23 15:37 52.45718 7.17463 87 ft 7 kts 335°
2026-04-23 15:37 52.45769 7.17424 85 ft 5 kts
2026-04-23 15:37 52.45781 7.17434 85 ft 0 kts 73°